Location: Rotheul
(50.2849°N, 11.2349°E)
Time: 03:34:55
(UTC+02:00)

ISS - Pass Details

Date: 22 May 2018
Orbit: 402 x 407 km, 51.6° (Epoch: 23 May)

Event Time Altitude Azimuth Distance (km) Brightness Sun altitude
Rises 03:04:18 0° 287° (WNW) 2,321 -0.1 -15.1°
Reaches altitude 10° 03:06:24 10° 283° (WNW) 1,459 -1.2 -15.0°
Maximum altitude 03:09:37 58° 204° (SSW) 477 -3.9 -14.7°
Drops below altitude 10° 03:12:49 10° 124° (SE) 1,453 -1.1 -14.5°
Sets 03:14:55 0° 120° (ESE) 2,310 0.0 -14.3°
